Погода в Лашме

Россия / Рязанская область     54°55′13″N   41°07′51″E
темп.,
°C
ветер,
м/с
пор.,
м/с
влажн.,
%
обл.,
%
осадки,
мм/ч
давл.,
гПа
погр.,
м
9 мая, вс
вс900:00+11ююв61393100 0.8 1004858
03:00+12ююв51296100 1.0 1003804
06:00+10ююз2697100 1.4 1004351
09:00+10ююз1396100 3.3 1005275
12:00+9з3696100 5.6 1007328
15:00+9зсз4594100 7.8 1009568
18:00+5сз51095100 0.8 1012544
21:00+5ссз51196100 1.7 1015713
10 мая, пн
пн1000:00+5ссз51196100 0.6 1017836
03:00+5ссз61290100 0.6 1019921
06:00+5ссз51388100 0.0 1021703
09:00+5с51280100 0.0 1023674
12:00+12ссв5856100 0.0 10231140
15:00+11ссв5868100 0.0 1024948
18:00+11св51174100 0.0 1025729
21:00+8св51485100 0.0 1026537
11 мая, вт
вт1100:00+7ссв5139093 0.0 1026363
03:00+7св5149165 0.0 1026371
06:00+8св5148733 0.0 1026389
09:00+14св610705 0.0 1026546
12:00+19св68595 0.0 1025860
15:00+22всв6853100 0.1 10251543
18:00+18в41071100 0.9 1025502
21:00+12ююз269792 1.4 1028171
12 мая, ср
ср1200:00+11з1294100 0.0 102843
03:00+9ссз249697 0.0 102766
06:00+11ссз239583 0.0 102697
09:00+16в41285100 0.3 1025748
12:00+17в61279100 0.5 10241081
15:00+16вюв81677100 0.6 10231329
18:00+15вюв4128649 0.4 10231054
21:00+13вюв399692 0.6 1024297
13 мая, чт
чт1300:00+12юв2597100 0.1 1024172
03:00+13в389598 0.1 1023272
06:00+13вюв3109281 0.0 1022333
09:00+15вюв51379100 0.3 1021650
12:00+18юв5966100 0.4 10211013
15:00+16юв2687100 0.9 1020210
18:00+15вюв279259 0.1 1020187
21:00+14вюв27975 0.1 1021161